Time,TemperatureF,DewpointF,PressureIn,WindDirection,WindDirectionDegrees,WindSpeedMPH,WindSpeedGustMPH,Humidity,HourlyPrecipIn,Conditions,Clouds,dailyrainin,SoftwareType,DateUTC
2013-02-05 00:04:00,39.9,28.0,29.93,SW,218,0.0,0.0,62,0.00,,---,0.00,VWS V14.01,2013-02-05 06:04:00,
2013-02-05 00:09:00,39.0,27.9,29.93,SSW,211,1.0,1.0,64,0.00,,---,0.00,VWS V14.01,2013-02-05 06:09:00,
2013-02-05 00:14:00,38.6,27.9,29.93,SSW,207,1.0,2.0,65,0.00,,---,0.00,VWS V14.01,2013-02-05 06:14:00,
2013-02-05 00:20:00,38.8,28.4,29.93,WSW,252,0.0,2.0,66,0.00,,---,0.00,VWS V14.01,2013-02-05 06:20:00,
2013-02-05 00:25:00,39.6,28.8,29.93,West,276,1.0,2.0,65,0.00,,---,0.00,VWS V14.01,2013-02-05 06:25:00,
2013-02-05 00:30:00,39.6,28.4,29.93,West,278,0.0,2.0,64,0.00,,---,0.00,VWS V14.01,2013-02-05 06:30:00,
2013-02-05 00:35:00,39.1,28.7,29.93,West,274,1.0,1.0,66,0.00,,---,0.00,VWS V14.01,2013-02-05 06:35:00,
2013-02-05 00:40:00,39.4,28.6,29.93,WNW,283,0.0,2.0,65,0.00,,---,0.00,VWS V14.01,2013-02-05 06:40:00,
2013-02-05 00:45:00,39.3,28.5,29.92,WNW,282,0.0,2.0,65,0.00,,---,0.00,VWS V14.01,2013-02-05 06:45:00,
2013-02-05 00:50:00,39.2,28.4,29.92,WNW,283,0.0,2.0,65,0.00,,---,0.00,VWS V14.01,2013-02-05 06:50:00,
2013-02-05 00:56:00,39.5,28.7,29.92,WNW,283,0.0,2.0,65,0.00,,---,0.00,VWS V14.01,2013-02-05 06:56:00,
2013-02-05 01:01:00,40.3,28.7,29.92,NW,306,0.0,2.0,63,0.00,,---,0.00,VWS V14.01,2013-02-05 07:01:00,
2013-02-05 01:06:00,40.6,28.6,29.92,NNW,342,0.0,0.0,62,0.00,,---,0.00,VWS V14.01,2013-02-05 07:06:00,
2013-02-05 01:11:00,40.1,28.1,29.92,NNE,12,0.0,1.0,62,0.00,,---,0.00,VWS V14.01,2013-02-05 07:11:00,
2013-02-05 01:16:00,40.1,28.5,29.92,North,11,0.0,1.0,63,0.00,,---,0.00,VWS V14.01,2013-02-05 07:16:00,
2013-02-05 01:21:00,39.5,28.0,29.92,North,11,0.0,1.0,63,0.00,,---,0.00,VWS V14.01,2013-02-05 07:21:00,
2013-02-05 01:26:00,38.6,27.5,29.92,North,11,0.0,1.0,64,0.00,,---,0.00,VWS V14.01,2013-02-05 07:26:00,
2013-02-05 01:31:00,37.7,27.0,29.92,North,11,0.0,0.0,65,0.00,,---,0.00,VWS V14.01,2013-02-05 07:31:00,
2013-02-05 01:36:00,37.1,27.5,29.92,North,11,0.0,0.0,68,0.00,,---,0.00,VWS V14.01,2013-02-05 07:36:00,
2013-02-05 01:41:00,36.5,27.7,29.92,NNE,12,0.0,0.0,70,0.00,,---,0.00,VWS V14.01,2013-02-05 07:41:00,
2013-02-05 01:47:00,35.5,26.7,29.92,NNE,13,2.0,2.0,70,0.00,,---,0.00,VWS V14.01,2013-02-05 07:47:00,
2013-02-05 01:52:00,34.3,26.2,29.92,SSW,194,0.0,2.0,72,0.00,,---,0.00,VWS V14.01,2013-02-05 07:52:00,
2013-02-05 01:57:00,34.0,26.3,29.92,SSW,195,0.0,2.0,73,0.00,,---,0.00,VWS V14.01,2013-02-05 07:57:00,
2013-02-05 02:02:00,33.9,26.5,29.91,SSW,195,0.0,0.0,74,0.00,,---,0.00,VWS V14.01,2013-02-05 08:02:00,
2013-02-05 02:07:00,34.0,26.9,29.91,SSW,195,0.0,0.0,75,0.00,,---,0.00,VWS V14.01,2013-02-05 08:07:00,
2013-02-05 02:12:00,34.6,27.5,29.91,SSW,195,0.0,0.0,75,0.00,,---,0.00,VWS V14.01,2013-02-05 08:12:00,
2013-02-05 02:17:00,35.2,27.8,29.91,SSW,195,0.0,0.0,74,0.00,,---,0.00,VWS V14.01,2013-02-05 08:17:00,
2013-02-05 02:22:00,35.0,27.2,29.92,SW,224,0.0,1.0,73,0.00,,---,0.00,VWS V14.01,2013-02-05 08:22:00,
2013-02-05 02:28:00,34.4,26.7,29.92,SSW,210,2.0,3.0,73,0.00,,---,0.00,VWS V14.01,2013-02-05 08:28:00,
2013-02-05 02:33:00,34.0,26.9,29.92,SW,219,1.0,3.0,75,0.00,,---,0.00,VWS V14.01,2013-02-05 08:33:00,
2013-02-05 02:38:00,34.3,27.5,29.91,SW,220,0.0,3.0,76,0.00,,---,0.00,VWS V14.01,2013-02-05 08:38:00,
2013-02-05 02:43:00,34.7,27.6,29.92,SW,219,0.0,3.0,75,0.00,,---,0.00,VWS V14.01,2013-02-05 08:43:00,
2013-02-05 02:48:00,34.7,27.9,29.91,SW,220,0.0,3.0,76,0.00,,---,0.00,VWS V14.01,2013-02-05 08:48:00,
2013-02-05 02:53:00,34.5,27.7,29.91,SW,228,0.0,3.0,76,0.00,,---,0.00,VWS V14.01,2013-02-05 08:53:00,
2013-02-05 02:58:00,34.3,27.5,29.91,SW,228,0.0,3.0,76,0.00,,---,0.00,VWS V14.01,2013-02-05 08:58:00,
2013-02-05 03:03:00,33.9,27.1,29.91,SW,227,0.0,0.0,76,0.00,,---,0.00,VWS V14.01,2013-02-05 09:03:00,
2013-02-05 03:09:00,33.7,27.0,29.91,SSE,150,0.0,1.0,76,0.00,,---,0.00,VWS V14.01,2013-02-05 09:09:00,
2013-02-05 03:14:00,33.6,26.9,29.91,SSE,151,0.0,1.0,76,0.00,,---,0.00,VWS V14.01,2013-02-05 09:14:00,
2013-02-05 03:19:00,33.7,27.3,29.91,SSE,150,0.0,1.0,77,0.00,,---,0.00,VWS V14.01,2013-02-05 09:19:00,
2013-02-05 03:24:00,33.8,27.0,29.91,SSE,151,0.0,1.0,76,0.00,,---,0.00,VWS V14.01,2013-02-05 09:24:00,
2013-02-05 03:29:00,33.0,26.3,29.91,SSE,151,0.0,1.0,76,0.00,,---,0.00,VWS V14.01,2013-02-05 09:29:00,
2013-02-05 03:34:00,32.3,26.8,29.91,SSE,151,0.0,0.0,80,0.00,,---,0.00,VWS V14.01,2013-02-05 09:34:00,
2013-02-05 03:39:00,31.9,26.1,29.91,SSE,151,0.0,0.0,79,0.00,,---,0.00,VWS V14.01,2013-02-05 09:39:00,
2013-02-05 03:45:00,31.4,26.0,29.91,SSE,151,0.0,0.0,80,0.00,,---,0.00,VWS V14.01,2013-02-05 09:45:00,
2013-02-05 03:50:00,31.6,26.1,29.91,SSW,207,0.0,0.0,80,0.00,,---,0.00,VWS V14.01,2013-02-05 09:50:00,
2013-02-05 03:55:00,31.3,25.6,29.91,SW,217,2.0,3.0,79,0.00,,---,0.00,VWS V14.01,2013-02-05 09:55:00,
2013-02-05 04:00:00,31.1,25.4,29.91,SSW,207,0.0,3.0,79,0.00,,---,0.00,VWS V14.01,2013-02-05 10:00:00,
2013-02-05 04:05:00,31.3,25.9,29.91,SW,231,0.0,1.0,80,0.00,,---,0.00,VWS V14.01,2013-02-05 10:05:00,
2013-02-05 04:10:00,31.3,25.9,29.91,SW,232,0.0,1.0,80,0.00,,---,0.00,VWS V14.01,2013-02-05 10:10:00,
2013-02-05 04:15:00,31.3,26.2,29.91,SW,232,0.0,1.0,81,0.00,,---,0.00,VWS V14.01,2013-02-05 10:15:00,
2013-02-05 04:20:00,31.2,26.1,29.91,SW,232,0.0,1.0,81,0.00,,---,0.00,VWS V14.01,2013-02-05 10:20:00,
2013-02-05 04:25:00,31.2,26.1,29.92,NW,311,2.0,2.0,81,0.00,,---,0.00,VWS V14.01,2013-02-05 10:25:00,
2013-02-05 04:30:00,30.8,26.0,29.92,NW,321,2.0,2.0,82,0.00,,---,0.00,VWS V14.01,2013-02-05 10:30:00,
2013-02-05 04:36:00,30.1,25.6,29.92,NW,320,0.0,2.0,83,0.00,,---,0.00,VWS V14.01,2013-02-05 10:36:00,
2013-02-05 04:41:00,29.9,25.7,29.92,NW,320,0.0,2.0,84,0.00,,---,0.00,VWS V14.01,2013-02-05 10:41:00,
2013-02-05 04:46:00,29.9,25.7,29.92,NW,321,0.0,2.0,84,0.00,,---,0.00,VWS V14.01,2013-02-05 10:46:00,
2013-02-05 04:51:00,30.0,26.0,29.92,NW,321,0.0,2.0,85,0.00,,---,0.00,VWS V14.01,2013-02-05 10:51:00,
2013-02-05 04:56:00,31.0,26.5,29.92,NW,320,0.0,2.0,83,0.00,,---,0.00,VWS V14.01,2013-02-05 10:56:00,
2013-02-05 05:01:00,31.6,26.5,29.92,NW,321,0.0,0.0,81,0.00,,---,0.00,VWS V14.01,2013-02-05 11:01:00,
2013-02-05 05:06:00,31.8,26.4,29.92,NW,315,0.0,0.0,80,0.00,,---,0.00,VWS V14.01,2013-02-05 11:06:00,
2013-02-05 05:11:00,31.7,26.2,29.92,NW,315,0.0,0.0,80,0.00,,---,0.00,VWS V14.01,2013-02-05 11:11:00,
2013-02-05 05:16:00,31.5,26.4,29.93,NW,314,0.0,0.0,81,0.00,,---,0.00,VWS V14.01,2013-02-05 11:16:00,
2013-02-05 05:22:00,31.6,26.5,29.93,WNW,300,0.0,3.0,81,0.00,,---,0.00,VWS V14.01,2013-02-05 11:22:00,
2013-02-05 05:27:00,31.6,26.1,29.93,WNW,301,0.0,3.0,80,0.00,,---,0.00,VWS V14.01,2013-02-05 11:27:00,
2013-02-05 05:32:00,31.7,26.2,29.93,WNW,291,1.0,1.0,80,0.00,,---,0.00,VWS V14.01,2013-02-05 11:32:00,
2013-02-05 05:37:00,31.8,26.4,29.94,WNW,283,3.0,3.0,80,0.00,,---,0.00,VWS V14.01,2013-02-05 11:37:00,
2013-02-05 05:42:00,31.8,26.4,29.94,WNW,291,4.0,5.0,80,0.00,,---,0.00,VWS V14.01,2013-02-05 11:42:00,
2013-02-05 05:47:00,31.3,26.2,29.95,WNW,303,3.0,5.0,81,0.00,,---,0.00,VWS V14.01,2013-02-05 11:47:00,
2013-02-05 05:52:00,30.9,26.1,29.95,WNW,300,1.0,5.0,82,0.00,,---,0.00,VWS V14.01,2013-02-05 11:52:00,
2013-02-05 05:58:00,31.0,26.5,29.96,West,272,1.0,5.0,83,0.00,,---,0.00,VWS V14.01,2013-02-05 11:58:00,
2013-02-05 06:03:00,31.6,26.8,29.96,West,271,1.0,2.0,82,0.00,,---,0.00,VWS V14.01,2013-02-05 12:03:00,
2013-02-05 06:08:00,32.0,26.8,29.96,West,266,0.0,2.0,81,0.00,,---,0.00,VWS V14.01,2013-02-05 12:08:00,
2013-02-05 06:13:00,31.9,26.4,29.97,WSW,248,0.0,2.0,80,0.00,,---,0.00,VWS V14.01,2013-02-05 12:13:00,
2013-02-05 06:18:00,31.6,26.5,29.97,WSW,248,0.0,2.0,81,0.00,,---,0.00,VWS V14.01,2013-02-05 12:18:00,
2013-02-05 06:23:00,31.8,26.6,29.97,North,357,0.0,2.0,81,0.00,,---,0.00,VWS V14.01,2013-02-05 12:23:00,
2013-02-05 06:28:00,32.1,26.9,29.97,North,357,0.0,2.0,81,0.00,,---,0.00,VWS V14.01,2013-02-05 12:28:00,
2013-02-05 06:33:00,32.0,26.5,29.97,North,356,0.0,0.0,80,0.00,,---,0.00,VWS V14.01,2013-02-05 12:33:00,
2013-02-05 06:39:00,31.8,26.4,29.97,NW,304,0.0,1.0,80,0.00,,---,0.00,VWS V14.01,2013-02-05 12:39:00,
2013-02-05 06:44:00,31.7,26.2,29.97,NW,307,0.0,1.0,80,0.00,,---,0.00,VWS V14.01,2013-02-05 12:44:00,
2013-02-05 06:49:00,31.4,26.0,29.97,NW,306,0.0,1.0,80,0.00,,---,0.00,VWS V14.01,2013-02-05 12:49:00,
2013-02-05 06:54:00,31.0,25.9,29.97,NW,307,0.0,1.0,81,0.00,,---,0.00,VWS V14.01,2013-02-05 12:54:00,
2013-02-05 06:59:00,30.9,25.8,29.97,WSW,243,0.0,1.0,81,0.00,,---,0.00,VWS V14.01,2013-02-05 12:59:00,
2013-02-05 07:04:00,31.1,26.3,29.97,SW,221,0.0,0.0,82,0.00,,---,0.00,VWS V14.01,2013-02-05 13:04:00,
2013-02-05 07:10:00,31.0,25.9,29.97,South,187,0.0,1.0,81,0.00,,---,0.00,VWS V14.01,2013-02-05 13:10:00,
2013-02-05 07:15:00,30.1,24.7,29.97,South,183,3.0,4.0,80,0.00,,---,0.00,VWS V14.01,2013-02-05 13:15:00,
2013-02-05 07:20:00,29.3,24.5,29.97,SSE,157,2.0,4.0,82,0.00,,---,0.00,VWS V14.01,2013-02-05 13:20:00,
2013-02-05 07:25:00,29.1,24.9,29.97,SSE,156,3.0,4.0,84,0.00,,---,0.00,VWS V14.01,2013-02-05 13:25:00,
2013-02-05 07:30:00,29.7,25.5,29.96,SSE,163,3.0,4.0,84,0.00,,---,0.00,VWS V14.01,2013-02-05 13:30:00,
2013-02-05 07:35:00,29.6,24.8,29.97,SSW,193,4.0,4.0,82,0.00,,---,0.00,VWS V14.01,2013-02-05 13:35:00,
2013-02-05 07:40:00,29.3,24.8,29.96,SSE,166,2.0,4.0,83,0.00,,---,0.00,VWS V14.01,2013-02-05 13:40:00,
2013-02-05 07:46:00,29.4,24.9,29.97,SSW,207,1.0,5.0,83,0.00,,---,0.00,VWS V14.01,2013-02-05 13:46:00,
2013-02-05 07:51:00,29.6,25.1,29.98,WSW,251,0.0,5.0,83,0.00,,---,0.00,VWS V14.01,2013-02-05 13:51:00,
2013-02-05 07:56:00,30.1,25.6,29.98,WSW,250,1.0,5.0,83,0.00,,---,0.00,VWS V14.01,2013-02-05 13:56:00,
2013-02-05 08:01:00,30.0,25.2,29.98,SSW,210,1.0,2.0,82,0.00,,---,0.00,VWS V14.01,2013-02-05 14:01:00,
2013-02-05 08:06:00,30.2,25.7,29.98,West,262,1.0,2.0,83,0.00,,---,0.00,VWS V14.01,2013-02-05 14:06:00,
2013-02-05 08:11:00,30.3,25.8,29.99,West,277,1.0,2.0,83,0.00,,---,0.00,VWS V14.01,2013-02-05 14:11:00,
2013-02-05 08:16:00,30.5,26.2,30.00,NW,326,2.0,2.0,84,0.00,,---,0.00,VWS V14.01,2013-02-05 14:16:00,
2013-02-05 08:22:00,31.2,27.2,30.00,NW,325,0.0,2.0,85,0.00,,---,0.00,VWS V14.01,2013-02-05 14:22:00,
2013-02-05 08:27:00,31.9,27.3,30.01,NW,325,0.0,2.0,83,0.00,,---,0.00,VWS V14.01,2013-02-05 14:27:00,
2013-02-05 08:32:00,32.9,28.0,30.01,NW,306,0.0,0.0,82,0.00,,---,0.00,VWS V14.01,2013-02-05 14:32:00,
2013-02-05 08:37:00,33.8,28.6,30.01,WNW,303,0.0,2.0,81,0.00,,---,0.00,VWS V14.01,2013-02-05 14:37:00,
2013-02-05 08:42:00,34.6,29.1,30.01,NNW,330,0.0,2.0,80,0.00,,---,0.00,VWS V14.01,2013-02-05 14:42:00,
2013-02-05 08:47:00,35.5,29.3,30.01,NW,319,0.0,2.0,78,0.00,,---,0.00,VWS V14.01,2013-02-05 14:47:00,
2013-02-05 08:53:00,36.5,30.0,30.01,NW,322,0.0,2.0,77,0.00,,---,0.00,VWS V14.01,2013-02-05 14:53:00,
2013-02-05 08:58:00,37.4,30.2,30.01,NNW,330,0.0,2.0,75,0.00,,---,0.00,VWS V14.01,2013-02-05 14:58:00,
2013-02-05 09:03:00,38.1,30.2,30.01,NW,321,1.0,2.0,73,0.00,,---,0.00,VWS V14.01,2013-02-05 15:03:00,
2013-02-05 09:08:00,38.9,30.7,30.01,NW,326,0.0,2.0,72,0.00,,---,0.00,VWS V14.01,2013-02-05 15:08:00,
2013-02-05 09:13:00,39.6,31.0,30.01,NNW,333,0.0,2.0,71,0.00,,---,0.00,VWS V14.01,2013-02-05 15:13:00,
2013-02-05 09:18:00,40.5,31.5,30.01,NNW,336,0.0,2.0,70,0.00,,---,0.00,VWS V14.01,2013-02-05 15:18:00,
2013-02-05 09:23:00,41.4,31.6,30.01,North,4,2.0,2.0,68,0.00,,---,0.00,VWS V14.01,2013-02-05 15:23:00,
2013-02-05 09:29:00,42.4,31.9,30.01,NNE,25,5.0,5.0,66,0.00,,---,0.00,VWS V14.01,2013-02-05 15:29:00,
2013-02-05 09:34:00,43.2,32.2,30.01,NNW,332,2.0,6.0,65,0.00,,---,0.00,VWS V14.01,2013-02-05 15:34:00,
2013-02-05 09:39:00,44.0,32.2,30.01,NW,320,2.0,6.0,63,0.00,,---,0.00,VWS V14.01,2013-02-05 15:39:00,
2013-02-05 09:44:00,45.0,32.8,30.01,WNW,303,1.0,6.0,62,0.00,,---,0.00,VWS V14.01,2013-02-05 15:44:00,
2013-02-05 09:49:00,45.9,33.2,30.02,NW,304,1.0,6.0,61,0.00,,---,0.00,VWS V14.01,2013-02-05 15:49:00,
2013-02-05 09:54:00,46.8,33.2,30.02,WNW,291,1.0,6.0,59,0.00,,---,0.00,VWS V14.01,2013-02-05 15:54:00,
2013-02-05 09:59:00,47.6,33.1,30.02,NW,307,0.0,6.0,57,0.00,,---,0.00,VWS V14.01,2013-02-05 15:59:00,
2013-02-05 10:04:00,48.5,33.1,30.02,NW,309,0.0,2.0,55,0.00,,---,0.00,VWS V14.01,2013-02-05 16:04:00,
2013-02-05 10:10:00,49.2,33.3,30.02,NW,324,2.0,4.0,54,0.00,,---,0.00,VWS V14.01,2013-02-05 16:10:00,
2013-02-05 10:15:00,49.8,33.4,30.03,NW,311,2.0,4.0,53,0.00,,---,0.00,VWS V14.01,2013-02-05 16:15:00,
2013-02-05 10:20:00,50.3,33.8,30.03,WNW,283,1.0,4.0,53,0.00,,---,0.00,VWS V14.01,2013-02-05 16:20:00,
2013-02-05 10:25:00,50.8,34.3,30.03,WSW,253,0.0,4.0,53,0.00,,---,0.00,VWS V14.01,2013-02-05 16:25:00,
2013-02-05 10:30:00,51.6,34.6,30.03,WNW,283,0.0,4.0,52,0.00,,---,0.00,VWS V14.01,2013-02-05 16:30:00,
2013-02-05 10:35:00,52.0,34.9,30.03,West,267,1.0,2.0,52,0.00,,---,0.00,VWS V14.01,2013-02-05 16:35:00,
2013-02-05 10:40:00,52.5,35.4,30.03,WNW,297,0.0,3.0,52,0.00,,---,0.00,VWS V14.01,2013-02-05 16:40:00,
2013-02-05 10:46:00,53.4,36.2,30.03,SW,225,0.0,3.0,52,0.00,,---,0.00,VWS V14.01,2013-02-05 16:46:00,
2013-02-05 10:51:00,54.7,35.4,30.03,SE,136,1.0,3.0,48,0.00,,---,0.00,VWS V14.01,2013-02-05 16:51:00,
2013-02-05 10:56:00,55.4,35.5,30.03,WNW,288,0.0,3.0,47,0.00,,---,0.00,VWS V14.01,2013-02-05 16:56:00,
2013-02-05 11:01:00,55.4,35.5,30.03,NNW,345,0.0,1.0,47,0.00,,---,0.00,VWS V14.01,2013-02-05 17:01:00,
2013-02-05 11:06:00,55.7,35.8,30.03,NNW,333,0.0,4.0,47,0.00,,---,0.00,VWS V14.01,2013-02-05 17:06:00,
2013-02-05 11:11:00,55.6,35.2,30.03,NW,307,2.0,5.0,46,0.00,,---,0.00,VWS V14.01,2013-02-05 17:11:00,
2013-02-05 11:16:00,56.1,35.1,30.03,SW,219,0.0,5.0,45,0.00,,---,0.00,VWS V14.01,2013-02-05 17:16:00,
2013-02-05 11:22:00,56.8,35.7,30.03,West,269,0.0,5.0,45,0.00,,---,0.00,VWS V14.01,2013-02-05 17:22:00,
2013-02-05 11:27:00,57.7,35.4,30.03,ESE,111,0.0,5.0,43,0.00,,---,0.00,VWS V14.01,2013-02-05 17:27:00,
2013-02-05 11:32:00,58.4,34.8,30.02,West,275,0.0,3.0,41,0.00,,---,0.00,VWS V14.01,2013-02-05 17:32:00,
2013-02-05 11:37:00,58.8,34.5,30.02,West,274,1.0,6.0,40,0.00,,---,0.00,VWS V14.01,2013-02-05 17:37:00,
2013-02-05 11:42:00,59.0,35.3,30.02,SSE,149,1.0,6.0,41,0.00,,---,0.00,VWS V14.01,2013-02-05 17:42:00,
2013-02-05 11:47:00,59.8,34.8,30.02,West,263,2.0,6.0,39,0.00,,---,0.00,VWS V14.01,2013-02-05 17:47:00,
2013-02-05 11:52:00,59.9,34.9,30.02,West,266,1.0,6.0,39,0.00,,---,0.00,VWS V14.01,2013-02-05 17:52:00,
2013-02-05 11:57:00,60.2,34.5,30.02,SSE,162,2.0,6.0,38,0.00,,---,0.00,VWS V14.01,2013-02-05 17:57:00,
2013-02-05 12:03:00,61.0,35.2,30.01,NNW,344,0.0,3.0,38,0.00,,---,0.00,VWS V14.01,2013-02-05 18:03:00,
2013-02-05 12:08:00,61.0,33.9,30.01,West,263,2.0,6.0,36,0.00,,---,0.00,VWS V14.01,2013-02-05 18:08:00,
2013-02-05 12:13:00,61.7,33.8,30.01,NE,46,0.0,6.0,35,0.00,,---,0.00,VWS V14.01,2013-02-05 18:13:00,
2013-02-05 12:18:00,62.4,34.4,30.00,SW,226,0.0,6.0,35,0.00,,---,0.00,VWS V14.01,2013-02-05 18:18:00,
2013-02-05 12:23:00,63.6,34.7,30.00,SSE,148,1.0,6.0,34,0.00,,---,0.00,VWS V14.01,2013-02-05 18:23:00,
2013-02-05 12:29:00,63.4,34.6,30.00,WNW,295,3.0,6.0,34,0.00,,---,0.00,VWS V14.01,2013-02-05 18:29:00,
2013-02-05 12:34:00,63.6,34.0,30.00,SSW,205,4.0,5.0,33,0.00,,---,0.00,VWS V14.01,2013-02-05 18:34:00,
2013-02-05 12:39:00,63.6,33.2,29.99,North,350,0.0,5.0,32,0.00,,---,0.00,VWS V14.01,2013-02-05 18:39:00,
2013-02-05 12:44:00,64.6,33.3,29.99,SSW,204,4.0,5.0,31,0.00,,---,0.00,VWS V14.01,2013-02-05 18:44:00,
2013-02-05 12:49:00,64.6,33.3,29.99,SSE,157,2.0,5.0,31,0.00,,---,0.00,VWS V14.01,2013-02-05 18:49:00,
2013-02-05 12:55:00,64.7,32.6,29.98,North,9,0.0,5.0,30,0.00,,---,0.00,VWS V14.01,2013-02-05 18:55:00,
2013-02-05 13:00:00,65.4,33.2,29.98,South,172,0.0,5.0,30,0.00,,---,0.00,VWS V14.01,2013-02-05 19:00:00,
2013-02-05 13:05:00,66.0,33.7,29.98,East,87,5.0,6.0,30,0.00,,---,0.00,VWS V14.01,2013-02-05 19:05:00,
2013-02-05 13:10:00,65.9,31.9,29.98,WNW,298,0.0,6.0,28,0.00,,---,0.00,VWS V14.01,2013-02-05 19:10:00,
2013-02-05 13:15:00,66.0,32.9,29.97,ENE,75,0.0,6.0,29,0.00,,---,0.00,VWS V14.01,2013-02-05 19:15:00,
2013-02-05 13:20:00,66.4,34.0,29.97,NE,53,2.0,6.0,30,0.00,,---,0.00,VWS V14.01,2013-02-05 19:20:00,
2013-02-05 13:25:00,66.3,33.1,29.97,North,10,2.0,6.0,29,0.00,,---,0.00,VWS V14.01,2013-02-05 19:25:00,
2013-02-05 13:30:00,66.2,33.9,29.97,NE,45,6.0,6.0,30,0.00,,---,0.00,VWS V14.01,2013-02-05 19:30:00,
2013-02-05 13:36:00,66.4,33.2,29.96,ENE,70,5.0,7.0,29,0.00,,---,0.00,VWS V14.01,2013-02-05 19:36:00,
2013-02-05 13:41:00,66.5,32.4,29.96,ENE,70,5.0,7.0,28,0.00,,---,0.00,VWS V14.01,2013-02-05 19:41:00,
2013-02-05 13:46:00,66.6,31.6,29.96,ENE,65,1.0,10.0,27,0.00,,---,0.00,VWS V14.01,2013-02-05 19:46:00,
2013-02-05 13:51:00,67.1,32.9,29.95,ESE,107,2.0,10.0,28,0.00,,---,0.00,VWS V14.01,2013-02-05 19:51:00,
2013-02-05 13:56:00,67.3,32.2,29.95,ENE,76,7.0,10.0,27,0.00,,---,0.00,VWS V14.01,2013-02-05 19:56:00,
2013-02-05 14:02:00,67.3,32.2,29.95,NE,53,2.0,7.0,27,0.00,,---,0.00,VWS V14.01,2013-02-05 20:02:00,
2013-02-05 14:07:00,67.3,32.2,29.95,NE,53,5.0,7.0,27,0.00,,---,0.00,VWS V14.01,2013-02-05 20:07:00,
2013-02-05 14:12:00,67.3,32.2,29.95,ENE,61,3.0,10.0,27,0.00,,---,0.00,VWS V14.01,2013-02-05 20:12:00,
2013-02-05 14:17:00,67.8,31.7,29.95,ESE,110,9.0,10.0,26,0.00,,---,0.00,VWS V14.01,2013-02-05 20:17:00,
2013-02-05 14:22:00,67.7,30.6,29.95,ESE,104,4.0,11.0,25,0.00,,---,0.00,VWS V14.01,2013-02-05 20:22:00,
2013-02-05 14:27:00,67.8,29.7,29.95,ESE,117,4.0,11.0,24,0.00,,---,0.00,VWS V14.01,2013-02-05 20:27:00,
2013-02-05 14:32:00,68.1,30.0,29.95,East,97,3.0,10.0,24,0.00,,---,0.00,VWS V14.01,2013-02-05 20:32:00,
2013-02-05 14:38:00,67.8,29.7,29.95,East,96,4.0,10.0,24,0.00,,---,0.00,VWS V14.01,2013-02-05 20:38:00,
2013-02-05 14:43:00,68.0,30.9,29.95,East,79,6.0,11.0,25,0.00,,---,0.00,VWS V14.01,2013-02-05 20:43:00,
2013-02-05 14:48:00,67.7,30.6,29.95,ENE,75,6.0,11.0,25,0.00,,---,0.00,VWS V14.01,2013-02-05 20:48:00,
2013-02-05 14:53:00,67.8,30.7,29.95,ENE,68,7.0,11.0,25,0.00,,---,0.00,VWS V14.01,2013-02-05 20:53:00,
2013-02-05 14:58:00,67.9,30.8,29.94,East,83,9.0,11.0,25,0.00,,---,0.00,VWS V14.01,2013-02-05 20:58:00,
2013-02-05 15:03:00,67.9,30.8,29.94,East,86,8.0,11.0,25,0.00,,---,0.00,VWS V14.01,2013-02-05 21:03:00,
2013-02-05 15:09:00,68.0,30.9,29.94,East,79,7.0,11.0,25,0.00,,---,0.00,VWS V14.01,2013-02-05 21:09:00,
2013-02-05 15:14:00,68.2,31.1,29.94,ENE,76,3.0,11.0,25,0.00,,---,0.00,VWS V14.01,2013-02-05 21:14:00,
2013-02-05 15:19:00,68.3,31.1,29.94,ENE,75,7.0,11.0,25,0.00,,---,0.00,VWS V14.01,2013-02-05 21:19:00,
2013-02-05 15:24:00,68.5,33.2,29.94,ENE,75,8.0,11.0,27,0.00,,---,0.00,VWS V14.01,2013-02-05 21:24:00,
2013-02-05 15:29:00,68.5,33.2,29.94,East,87,5.0,11.0,27,0.00,,---,0.00,VWS V14.01,2013-02-05 21:29:00,
2013-02-05 15:34:00,68.6,33.3,29.94,ENE,63,5.0,7.0,27,0.00,,---,0.00,VWS V14.01,2013-02-05 21:34:00,
2013-02-05 15:40:00,68.4,34.0,29.94,NE,53,6.0,9.0,28,0.00,,---,0.00,VWS V14.01,2013-02-05 21:40:00,
2013-02-05 15:45:00,68.3,33.1,29.94,ENE,78,10.0,15.0,27,0.00,,---,0.00,VWS V14.01,2013-02-05 21:45:00,
2013-02-05 15:50:00,68.1,33.8,29.94,ENE,71,6.0,15.0,28,0.00,,---,0.00,VWS V14.01,2013-02-05 21:50:00,
2013-02-05 15:55:00,68.0,33.7,29.94,ENE,77,7.0,15.0,28,0.00,,---,0.00,VWS V14.01,2013-02-05 21:55:00,
2013-02-05 16:00:00,67.9,32.7,29.94,East,80,6.0,15.0,27,0.00,,---,0.00,VWS V14.01,2013-02-05 22:00:00,
2013-02-05 16:05:00,67.9,33.6,29.94,ENE,70,6.0,10.0,28,0.00,,---,0.00,VWS V14.01,2013-02-05 22:05:00,
2013-02-05 16:10:00,68.0,33.7,29.94,ENE,65,7.0,11.0,28,0.00,,---,0.00,VWS V14.01,2013-02-05 22:10:00,
2013-02-05 16:16:00,68.1,32.9,29.94,ENE,78,6.0,11.0,27,0.00,,---,0.00,VWS V14.01,2013-02-05 22:16:00,
2013-02-05 16:21:00,67.9,30.8,29.94,East,79,6.0,11.0,25,0.00,,---,0.00,VWS V14.01,2013-02-05 22:21:00,
2013-02-05 16:26:00,67.8,34.4,29.94,SE,129,4.0,11.0,29,0.00,,---,0.00,VWS V14.01,2013-02-05 22:26:00,
2013-02-05 16:31:00,67.9,34.5,29.94,ENE,68,6.0,9.0,29,0.00,,---,0.00,VWS V14.01,2013-02-05 22:31:00,
2013-02-05 16:36:00,67.7,34.3,29.94,East,83,3.0,11.0,29,0.00,,---,0.00,VWS V14.01,2013-02-05 22:36:00,
2013-02-05 16:42:00,68.0,36.3,29.94,East,79,5.0,11.0,31,0.00,,---,0.00,VWS V14.01,2013-02-05 22:42:00,
2013-02-05 16:47:00,67.9,37.0,29.94,ENE,59,6.0,11.0,32,0.00,,---,0.00,VWS V14.01,2013-02-05 22:47:00,
2013-02-05 16:52:00,67.9,37.8,29.94,East,98,5.0,11.0,33,0.00,,---,0.00,VWS V14.01,2013-02-05 22:52:00,
2013-02-05 16:57:00,67.9,40.0,29.94,ENE,77,8.0,11.0,36,0.00,,---,0.00,VWS V14.01,2013-02-05 22:57:00,
2013-02-05 17:02:00,67.6,39.7,29.94,ENE,78,7.0,11.0,36,0.00,,---,0.00,VWS V14.01,2013-02-05 23:02:00,
2013-02-05 17:07:00,67.4,40.2,29.94,East,83,8.0,11.0,37,0.00,,---,0.00,VWS V14.01,2013-02-05 23:07:00,
2013-02-05 17:12:00,67.3,40.2,29.94,East,91,8.0,12.0,37,0.00,,---,0.00,VWS V14.01,2013-02-05 23:12:00,
2013-02-05 17:18:00,67.0,41.2,29.94,East,89,8.0,12.0,39,0.00,,---,0.00,VWS V14.01,2013-02-05 23:18:00,
2013-02-05 17:23:00,66.6,42.2,29.94,ENE,76,11.0,13.0,41,0.00,,---,0.00,VWS V14.01,2013-02-05 23:23:00,
2013-02-05 17:28:00,66.1,41.7,29.94,NE,53,7.0,13.0,41,0.00,,---,0.00,VWS V14.01,2013-02-05 23:28:00,
2013-02-05 17:33:00,65.7,42.6,29.94,ENE,65,6.0,12.0,43,0.00,,---,0.00,VWS V14.01,2013-02-05 23:33:00,
2013-02-05 17:38:00,65.3,42.8,29.94,East,82,6.0,13.0,44,0.00,,---,0.00,VWS V14.01,2013-02-05 23:38:00,
2013-02-05 17:43:00,64.9,43.1,29.94,ENE,71,5.0,13.0,45,0.00,,---,0.00,VWS V14.01,2013-02-05 23:43:00,
2013-02-05 17:48:00,64.5,43.3,29.94,ENE,64,7.0,13.0,46,0.00,,---,0.00,VWS V14.01,2013-02-05 23:48:00,
2013-02-05 17:53:00,63.9,43.3,29.94,East,85,6.0,13.0,47,0.00,,---,0.00,VWS V14.01,2013-02-05 23:53:00,
2013-02-05 17:59:00,63.3,44.4,29.94,ENE,76,10.0,13.0,50,0.00,,---,0.00,VWS V14.01,2013-02-05 23:59:00,
2013-02-05 18:04:00,62.6,45.2,29.94,ENE,71,9.0,12.0,53,0.00,,---,0.00,VWS V14.01,2013-02-06 00:04:00,
2013-02-05 18:09:00,61.9,46.0,29.94,ENE,78,10.0,12.0,56,0.00,,---,0.00,VWS V14.01,2013-02-06 00:09:00,
2013-02-05 18:14:00,61.4,46.0,29.94,East,82,9.0,12.0,57,0.00,,---,0.00,VWS V14.01,2013-02-06 00:14:00,
2013-02-05 18:19:00,61.0,46.1,29.94,ENE,74,7.0,12.0,58,0.00,,---,0.00,VWS V14.01,2013-02-06 00:19:00,
2013-02-05 18:24:00,60.5,46.6,29.94,ENE,78,6.0,12.0,60,0.00,,---,0.00,VWS V14.01,2013-02-06 00:24:00,
2013-02-05 18:29:00,59.9,46.9,29.95,ENE,71,5.0,12.0,62,0.00,,---,0.00,VWS V14.01,2013-02-06 00:29:00,
2013-02-05 18:35:00,59.5,47.3,29.95,East,91,7.0,9.0,64,0.00,,---,0.00,VWS V14.01,2013-02-06 00:35:00,
2013-02-05 18:40:00,59.1,48.2,29.95,ENE,78,5.0,10.0,67,0.00,,---,0.00,VWS V14.01,2013-02-06 00:40:00,
2013-02-05 18:45:00,58.8,49.0,29.95,East,81,8.0,11.0,70,0.00,,---,0.00,VWS V14.01,2013-02-06 00:45:00,
2013-02-05 18:50:00,58.3,49.3,29.96,ENE,76,8.0,11.0,72,0.00,,---,0.00,VWS V14.01,2013-02-06 00:50:00,
2013-02-05 18:55:00,57.9,50.4,29.96,ENE,74,6.0,12.0,76,0.00,,---,0.00,VWS V14.01,2013-02-06 00:55:00,
2013-02-05 19:00:00,57.5,50.7,29.96,ENE,63,8.0,12.0,78,0.00,,---,0.00,VWS V14.01,2013-02-06 01:00:00,
2013-02-05 19:05:00,57.2,51.4,29.96,ENE,67,10.0,15.0,81,0.00,,---,0.00,VWS V14.01,2013-02-06 01:05:00,
2013-02-05 19:10:00,57.0,51.9,29.96,ENE,65,9.0,15.0,83,0.00,,---,0.00,VWS V14.01,2013-02-06 01:10:00,
2013-02-05 19:16:00,56.6,51.8,29.97,East,87,9.0,15.0,84,0.00,,---,0.00,VWS V14.01,2013-02-06 01:16:00,
2013-02-05 19:21:00,56.2,51.8,29.97,East,87,9.0,15.0,85,0.00,,---,0.00,VWS V14.01,2013-02-06 01:21:00,
2013-02-05 19:26:00,55.8,51.7,29.97,East,79,5.0,15.0,86,0.00,,---,0.00,VWS V14.01,2013-02-06 01:26:00,
2013-02-05 19:31:00,55.5,51.7,29.97,ENE,63,7.0,14.0,87,0.00,,---,0.00,VWS V14.01,2013-02-06 01:31:00,
2013-02-05 19:36:00,55.0,51.5,29.97,ENE,75,11.0,14.0,88,0.00,,---,0.00,VWS V14.01,2013-02-06 01:36:00,
2013-02-05 19:42:00,54.6,51.1,29.97,East,90,8.0,14.0,88,0.00,,---,0.00,VWS V14.01,2013-02-06 01:42:00,
2013-02-05 19:47:00,54.2,51.0,29.97,East,87,14.0,17.0,89,0.00,,---,0.00,VWS V14.01,2013-02-06 01:47:00,
2013-02-05 19:52:00,53.8,50.9,29.97,East,85,10.0,18.0,90,0.00,,---,0.00,VWS V14.01,2013-02-06 01:52:00,
2013-02-05 19:57:00,53.5,50.9,29.98,ESE,117,7.0,18.0,91,0.00,,---,0.00,VWS V14.01,2013-02-06 01:57:00,
2013-02-05 20:02:00,53.4,50.8,29.98,ENE,73,9.0,14.0,91,0.00,,---,0.00,VWS V14.01,2013-02-06 02:02:00,
2013-02-05 20:07:00,53.4,51.1,29.98,ESE,105,11.0,14.0,92,0.00,,---,0.00,VWS V14.01,2013-02-06 02:07:00,
2013-02-05 20:12:00,53.6,51.3,29.98,East,85,12.0,16.0,92,0.00,,---,0.00,VWS V14.01,2013-02-06 02:12:00,
2013-02-05 20:17:00,53.7,51.4,29.98,East,79,11.0,16.0,92,0.00,,---,0.00,VWS V14.01,2013-02-06 02:17:00,
2013-02-05 20:23:00,53.9,51.6,29.98,ENE,71,14.0,18.0,92,0.00,,---,0.00,VWS V14.01,2013-02-06 02:23:00,
2013-02-05 20:27:00,54.0,51.7,29.99,ESE,105,8.0,18.0,92,0.00,,---,0.00,VWS V14.01,2013-02-06 02:27:00,
2013-02-05 20:32:00,54.1,51.8,29.99,ENE,75,11.0,16.0,92,0.00,,---,0.00,VWS V14.01,2013-02-06 02:32:00,
2013-02-05 20:38:00,54.2,51.9,29.99,ENE,74,6.0,16.0,92,0.00,,---,0.00,VWS V14.01,2013-02-06 02:38:00,
2013-02-05 20:43:00,54.3,52.0,29.99,East,96,8.0,16.0,92,0.00,,---,0.00,VWS V14.01,2013-02-06 02:43:00,
2013-02-05 20:48:00,54.3,52.0,29.99,East,97,11.0,16.0,92,0.00,,---,0.00,VWS V14.01,2013-02-06 02:48:00,
2013-02-05 20:53:00,54.3,52.0,29.99,East,98,7.0,16.0,92,0.00,,---,0.00,VWS V14.01,2013-02-06 02:53:00,
2013-02-05 20:58:00,54.3,52.0,29.99,East,98,5.0,16.0,92,0.00,,---,0.00,VWS V14.01,2013-02-06 02:58:00,
2013-02-05 21:03:00,54.3,51.7,30.00,East,86,15.0,18.0,91,0.00,,---,0.00,VWS V14.01,2013-02-06 03:03:00,
2013-02-05 21:08:00,54.3,51.7,30.00,East,97,8.0,18.0,91,0.00,,---,0.00,VWS V14.01,2013-02-06 03:08:00,
2013-02-05 21:13:00,54.3,51.7,30.00,ENE,74,9.0,18.0,91,0.00,,---,0.00,VWS V14.01,2013-02-06 03:13:00,
2013-02-05 21:18:00,54.2,51.6,30.00,East,90,4.0,18.0,91,0.00,,---,0.00,VWS V14.01,2013-02-06 03:18:00,
2013-02-05 21:23:00,54.3,51.7,30.00,East,100,8.0,18.0,91,0.00,,---,0.00,VWS V14.01,2013-02-06 03:23:00,
2013-02-05 21:28:00,54.1,51.5,30.00,ESE,105,7.0,18.0,91,0.00,,---,0.00,VWS V14.01,2013-02-06 03:28:00,
2013-02-05 21:34:00,54.1,51.5,30.00,ESE,108,7.0,12.0,91,0.00,,---,0.00,VWS V14.01,2013-02-06 03:34:00,
2013-02-05 21:39:00,54.2,51.6,30.00,ESE,105,6.0,14.0,91,0.00,,---,0.00,VWS V14.01,2013-02-06 03:39:00,
2013-02-05 21:44:00,54.3,51.7,30.01,ESE,112,6.0,14.0,91,0.00,,---,0.00,VWS V14.01,2013-02-06 03:44:00,
2013-02-05 21:49:00,54.4,51.8,30.01,East,84,3.0,14.0,91,0.00,,---,0.00,VWS V14.01,2013-02-06 03:49:00,
2013-02-05 21:54:00,54.6,52.0,30.00,ESE,105,5.0,14.0,91,0.00,,---,0.00,VWS V14.01,2013-02-06 03:54:00,
2013-02-05 21:59:00,54.7,52.1,30.01,ESE,108,5.0,14.0,91,0.00,,---,0.00,VWS V14.01,2013-02-06 03:59:00,
2013-02-05 22:04:00,54.8,52.2,30.01,East,97,5.0,9.0,91,0.00,,---,0.00,VWS V14.01,2013-02-06 04:04:00,
2013-02-05 22:09:00,54.9,52.3,30.00,NE,53,4.0,9.0,91,0.00,,---,0.00,VWS V14.01,2013-02-06 04:09:00,
2013-02-05 22:14:00,54.9,52.0,30.00,East,97,4.0,9.0,90,0.00,,---,0.00,VWS V14.01,2013-02-06 04:14:00,
2013-02-05 22:20:00,54.9,52.0,30.00,East,101,4.0,9.0,90,0.00,,---,0.00,VWS V14.01,2013-02-06 04:20:00,
2013-02-05 22:25:00,54.8,51.9,30.01,ENE,77,3.0,9.0,90,0.00,,---,0.00,VWS V14.01,2013-02-06 04:25:00,
2013-02-05 22:30:00,54.6,51.7,30.01,East,79,4.0,9.0,90,0.00,,---,0.00,VWS V14.01,2013-02-06 04:30:00,
2013-02-05 22:35:00,54.4,51.5,30.01,ENE,66,5.0,7.0,90,0.00,,---,0.00,VWS V14.01,2013-02-06 04:35:00,
2013-02-05 22:40:00,54.2,51.6,30.01,ESE,106,11.0,11.0,91,0.00,,---,0.00,VWS V14.01,2013-02-06 04:40:00,
2013-02-05 22:45:00,54.4,51.8,30.01,East,79,6.0,12.0,91,0.00,,---,0.00,VWS V14.01,2013-02-06 04:45:00,
2013-02-05 22:50:00,54.4,51.8,30.01,ENE,73,6.0,12.0,91,0.00,,---,0.00,VWS V14.01,2013-02-06 04:50:00,
2013-02-05 22:56:00,54.4,51.8,30.01,East,97,7.0,13.0,91,0.00,,---,0.00,VWS V14.01,2013-02-06 04:56:00,
2013-02-05 23:00:00,54.4,51.8,30.00,East,98,5.0,13.0,91,0.00,,---,0.00,VWS V14.01,2013-02-06 05:00:00,
2013-02-05 23:01:00,54.4,51.8,30.00,ENE,71,6.0,13.0,91,0.00,,---,0.00,VWS V14.01,2013-02-06 05:01:00,
2013-02-05 23:02:00,54.4,51.8,30.00,ENE,73,8.0,11.0,91,0.00,,---,0.00,VWS V14.01,2013-02-06 05:02:00,
2013-02-05 23:07:00,54.3,51.7,30.01,ESE,113,8.0,11.0,91,0.00,,---,0.00,VWS V14.01,2013-02-06 05:07:00,
2013-02-05 23:12:00,54.2,51.9,30.01,East,99,4.0,11.0,92,0.00,,---,0.00,VWS V14.01,2013-02-06 05:12:00,
2013-02-05 23:17:00,54.1,51.8,30.01,East,91,8.0,11.0,92,0.00,,---,0.00,VWS V14.01,2013-02-06 05:17:00,
2013-02-05 23:22:00,54.1,51.8,30.00,East,85,5.0,11.0,92,0.00,,---,0.00,VWS V14.01,2013-02-06 05:22:00,
2013-02-05 23:28:00,54.0,51.7,30.01,East,96,5.0,11.0,92,0.00,,---,0.00,VWS V14.01,2013-02-06 05:28:00,
2013-02-05 23:33:00,54.0,51.7,30.00,East,85,4.0,8.0,92,0.00,,---,0.00,VWS V14.01,2013-02-06 05:33:00,
2013-02-05 23:38:00,53.9,51.6,30.01,ENE,73,8.0,9.0,92,0.00,,---,0.00,VWS V14.01,2013-02-06 05:38:00,
2013-02-05 23:43:00,53.8,51.5,30.01,ESE,108,4.0,9.0,92,0.00,,---,0.00,VWS V14.01,2013-02-06 05:43:00,
2013-02-05 23:48:00,53.7,51.4,30.01,East,97,3.0,9.0,92,0.00,,---,0.00,VWS V14.01,2013-02-06 05:48:00,
2013-02-05 23:53:00,53.7,51.4,30.01,East,94,4.0,9.0,92,0.00,,---,0.00,VWS V14.01,2013-02-06 05:53:00,
2013-02-05 23:58:00,53.5,51.2,30.00,East,97,3.0,9.0,92,0.00,,---,0.00,VWS V14.01,2013-02-06 05:58:00,